Theta_e
293 296 297 297 298 299 295 295 295 297 298 303 306 313 320 323 332 334 333 333 333 333 330 326 325 323 322 322 322 322 322 322 323 323 322 321 321 321 322 323 324 324 324 324
290 295 297 296 302 302 301 299 299 300 300 307 312 318 320 322 330 332 332 333 334 331 327 325 323 320 320 321 322 322 322 322 323 322 321 320 320 320 320 321 321 322 323 324
289 293 295 292 302 305 305 308 303 300 303 312 313 316 319 321 329 331 332 333 331 328 326 323 321 320 319 320 322 322 322 322 322 321 321 320 320 319 319 319 320 321 323 326
289 290 287 294 308 310 308 311 311 311 312 312 313 317 320 323 329 330 331 330 327 325 324 323 322 320 320 320 322 321 321 322 322 320 320 319 318 318 318 319 319 319 320 322
289 287 294 304 308 308 305 305 313 313 314 317 320 319 318 324 324 328 328 324 325 326 325 324 323 321 321 320 321 321 321 321 322 321 319 318 318 318 318 319 317 318 319 320
294 289 291 300 310 314 311 302 313 317 318 316 317 310 315 325 329 327 326 327 327 328 327 326 324 322 320 320 320 321 321 322 321 321 320 318 318 318 319 318 318 318 317 319
297 296 300 307 312 315 299 303 313 317 317 318 314 317 320 325 328 327 327 328 330 329 327 326 325 323 321 320 320 323 324 322 321 321 319 319 319 319 319 318 317 317 314 314
297 295 296 314 314 305 307 313 317 317 318 315 316 321 328 329 326 326 326 329 330 328 327 326 325 324 321 320 323 323 324 323 321 320 319 319 318 318 317 317 316 317 312 313
303 302 310 316 314 319 318 316 317 318 318 318 322 326 327 326 327 327 327 329 329 326 325 324 324 324 321 323 324 322 321 320 319 318 318 318 317 316 314 315 316 316 311 309
305 306 311 315 317 318 323 321 323 322 324 323 325 327 325 327 326 326 326 326 326 323 321 320 322 324 325 324 322 320 319 318 318 317 317 317 317 317 315 315 315 314 311 307
306 310 313 316 317 319 322 325 325 326 329 327 328 326 327 326 326 326 324 324 324 322 321 321 322 323 323 321 320 318 318 316 315 316 316 316 316 317 317 318 316 315 313 310
303 309 312 314 318 322 324 324 326 325 328 329 328 326 327 326 326 324 322 322 321 321 322 321 321 321 320 319 318 317 315 314 313 313 314 313 313 314 309 309 306 304 304 309
310 314 314 316 320 324 323 326 327 326 329 328 330 328 326 324 324 320 322 321 321 321 321 319 318 319 319 318 316 315 313 312 312 311 311 309 308 308 309 310 304 302 300 301
317 315 313 317 314 320 324 325 325 327 326 326 328 329 328 324 322 323 322 322 322 321 319 318 317 317 318 317 315 314 313 309 312 312 311 311 310 309 308 309 310 311 304 302
317 317 314 316 318 320 322 323 324 324 325 326 327 325 327 323 322 322 323 322 322 321 320 318 318 318 318 316 315 315 314 313 313 312 312 311 311 311 310 310 309 308 309 306
317 318 318 318 317 318 319 321 321 321 322 323 323 323 322 322 321 321 320 320 321 320 320 319 318 320 319 317 316 315 314 315 314 313 312 312 312 311 311 309 309 309 309 309
315 315 316 316 317 318 319 320 321 320 321 320 320 322 321 319 318 317 317 318 317 316 317 318 317 318 319 317 317 317 316 316 316 315 314 314 313 311 311 310 310 310 309 310
318 319 319 319 319 319 319 320 320 320 319 320 321 320 318 316 315 315 316 317 318 316 315 318 321 322 322 321 319 317 317 317 317 316 317 316 314 313 312 312 311 311 311 311
320 319 321 321 321 321 320 320 320 319 318 319 319 317 317 316 315 313 314 312 312 311 312 313 314 315 317 320 323 322 319 318 318 317 316 314 315 315 313 313 313 313 312 312
316 317 318 319 321 321 319 320 319 318 318 317 315 312 310 310 311 308 304 301 303 307 309 309 309 311 314 319 320 318 319 318 317 317 316 316 316 315 316 310 313 314 315 315
315 316 316 315 314 315 315 317 316 314 314 314 309 303 300 300 300 301 300 299 301 305 305 306 306 307 310 315 316 315 315 314 315 315 315 315 316 316 315 316 315 316 316 316
315 314 314 312 307 304 305 305 307 308 307 304 304 303 301 300 300 298 299 298 301 303 301 302 303 307 309 310 308 307 307 306 305 306 306 306 306 306 307 310 311 313 314 316
313 313 309 304 302 302 302 300 299 299 297 298 298 297 296 296 296 296 295 298 299 300 299 301 304 305 305 306 303 303 303 300 299 301 302 301 302 301 302 303 300 301 304 303
306 304 301 301 302 300 297 297 297 296 295 295 294 294 294 295 294 296 296 297 298 297 297 300 301 302 301 301 300 298 297 296 296 296 296 295 296 296 297 296 296 297 297 297
303 302 302 301 300 299 299 297 295 294 293 293 293 293 293 294 293 294 295 294 296 295 295 297 299 299 298 298 298 297 296 296 295 294 294 294 294 294 294 294 294 294 293 293
299 298 298 298 297 296 296 296 293 293 292 291 292 293 293 293 294 294 294 295 294 294 294 294 295 296 296 296 296 296 295 295 294 293 293 293 293 293 293 294 294 294 293 292
298 297 296 295 295 296 296 295 294 292 292 291 291 292 293 293 294 293 294 294 294 294 294 294 294 295 295 295 295 295 294 294 293 293 293 293 293 293 293 293 294 294 293 293
Wind_Speed
6 5 4 4 3 6 7 6 6 6 8 13 11 14 13 10 10 11 10 10 9 9 8 6 7 5 6 6 6 7 7 6 5 4 4 4 4 3 2 2 1 2 1 1
2 4 7 3 3 6 6 3 7 1 8 5 7 8 10 11 14 13 13 11 9 8 9 9 9 7 6 6 6 6 6 5 3 3 3 3 4 3 3 3 3 3 3 2
3 3 2 3 2 3 2 3 5 6 9 3 4 6 16 14 13 14 13 12 11 12 11 9 10 9 8 6 5 5 6 5 5 5 3 3 3 2 2 2 3 4 4 5
3 1 3 6 3 3 4 5 6 8 6 8 7 3 5 11 14 11 10 11 9 8 9 9 7 8 7 6 6 6 6 6 5 5 5 5 3 2 3 4 1 2 3 3
4 3 4 3 2 3 4 6 1 4 4 1 3 4 5 5 6 7 10 11 12 12 10 9 12 12 10 7 5 5 5 5 5 5 4 3 3 3 2 2 1 2 2 3
3 4 8 7 4 4 5 7 3 1 2 4 3 4 5 4 8 9 10 12 12 11 8 7 9 12 12 9 8 8 7 6 4 4 3 3 2 2 1 1 1 1 3 3
3 3 7 6 5 6 4 10 2 1 3 3 5 2 3 2 5 10 13 14 12 12 11 10 8 14 11 9 9 6 5 5 4 4 4 4 4 2 1 2 2 0 2 2
2 3 6 4 4 9 6 3 2 4 3 5 7 7 4 1 7 6 6 5 6 8 11 10 12 13 12 9 6 6 4 4 5 4 3 3 3 1 2 2 3 3 2 2
8 7 4 3 3 6 1 2 3 2 5 7 8 7 9 8 7 5 10 6 8 7 4 5 8 8 10 7 6 6 5 5 4 2 2 3 2 3 2 3 2 3 3 2
3 3 6 6 2 5 3 3 5 3 1 4 7 8 8 9 8 5 8 6 1 7 5 7 7 6 5 7 6 7 6 5 3 4 4 3 3 3 3 3 3 4 4 4
6 8 5 6 6 4 4 6 5 5 1 8 8 6 6 6 5 5 7 4 6 7 7 7 6 6 5 6 7 5 4 4 4 2 3 3 4 5 5 6 6 4 5 4
6 4 3 5 6 3 5 2 2 1 7 9 6 9 6 7 3 6 6 5 7 6 8 6 5 4 4 5 6 6 5 3 2 3 4 3 3 4 9 13 9 12 9 7
4 4 4 6 5 2 5 5 5 5 6 13 9 12 6 5 4 5 5 6 7 8 6 6 6 6 5 6 5 4 4 4 4 5 4 3 3 3 4 2 7 10 10 12
5 2 4 3 1 4 7 3 1 5 6 6 7 7 14 9 5 2 5 6 7 7 7 6 5 4 4 5 6 6 6 8 4 3 4 4 4 4 3 4 4 4 5 9
1 5 4 4 3 2 2 1 5 5 4 5 6 7 9 7 5 5 5 5 5 4 4 4 5 6 5 6 7 7 5 4 4 5 5 5 4 3 4 4 5 4 3 3
8 4 5 4 8 5 5 5 7 5 6 6 6 7 6 6 4 3 4 5 6 5 5 5 6 3 3 4 5 4 6 11 8 5 4 4 4 5 5 5 5 5 5 7
3 5 6 6 7 6 5 6 8 8 7 10 8 6 7 7 7 5 5 4 6 7 6 2 4 5 4 4 5 5 5 6 9 6 6 5 5 5 6 5 5 5 7 7
6 6 4 4 5 8 13 13 11 10 8 7 8 8 7 8 6 6 6 7 8 10 11 9 8 6 5 3 4 5 6 7 5 6 5 5 6 5 5 6 6 6 7 8
10 10 10 9 6 12 10 12 10 7 7 7 9 10 8 9 10 9 8 12 11 10 10 9 14 10 8 11 10 4 4 5 5 5 5 6 6 6 6 6 7 7 8 7
10 10 13 13 12 11 12 9 12 9 6 8 11 13 13 11 9 9 10 13 8 5 6 10 10 11 10 11 13 6 7 6 5 5 5 5 5 7 6 7 8 8 8 8
9 12 12 13 12 13 13 11 13 12 11 12 13 12 11 10 10 6 8 8 9 9 9 14 11 9 7 10 9 8 9 9 9 8 8 7 6 6 6 6 5 7 8 7
8 9 10 12 13 14 12 12 13 11 12 12 11 10 10 10 7 9 9 6 5 13 8 7 8 15 10 12 7 8 8 10 8 7 7 8 8 8 8 8 9 8 8 8
8 9 10 11 12 12 12 12 12 11 12 10 10 9 9 7 5 5 5 9 6 11 7 7 14 18 16 7 8 9 9 10 9 8 8 8 8 8 7 8 8 9 9 9
9 9 11 9 10 12 13 8 10 9 9 9 9 7 5 3 5 5 4 6 10 10 7 9 12 17 14 7 8 8 8 8 8 8 8 10 8 8 8 9 8 8 9 10
8 8 8 9 10 8 9 7 7 7 8 8 7 6 6 5 4 2 4 5 11 8 6 11 13 13 7 7 7 6 6 6 7 6 7 8 7 8 8 9 9 8 9 10
7 6 5 7 5 5 4 4 5 3 4 5 5 4 4 3 3 3 3 5 5 6 5 5 5 5 5 6 6 6 5 5 5 5 6 6 6 6 7 8 8 8 9 10
7 7 6 5 4 4 4 4 4 4 3 3 4 2 2 2 3 3 4 3 3 4 4 4 4 5 5 6 6 5 5 5 5 5 5 5 6 6 7 8 8 8 8 8
Wind_Direction
224 142 180 215 181 170 183 180 170 243 200 256 242 195 184 164 150 153 163 160 157 156 147 142 137 131 122 140 149 146 136 146 166 161 145 128 105 93 85 56 6 3 13 356
245 169 180 207 60 191 220 170 272 72 270 258 332 114 154 166 163 172 181 174 156 143 145 156 157 156 150 154 159 153 141 140 142 157 137 109 84 61 26 3 358 357 354 301
242 350 65 356 245 247 255 236 167 187 231 352 297 235 178 160 168 181 185 165 168 172 162 160 160 154 156 160 138 135 132 138 175 178 163 136 104 85 71 31 5 353 6 2
175 77 201 227 227 239 223 252 252 286 304 266 247 214 131 158 171 170 169 162 155 147 150 152 137 128 125 155 158 157 158 176 175 173 166 157 141 101 338 331 16 0 344 7
146 164 275 261 198 117 89 286 263 282 287 0 104 65 32 124 137 149 149 157 172 172 148 156 160 147 154 157 131 143 172 180 190 197 166 179 199 182 177 172 294 328 309 296
125 151 194 228 162 109 126 291 196 280 300 142 212 78 282 192 145 151 149 158 158 156 147 181 172 141 138 152 165 185 183 184 179 197 180 194 222 241 185 189 207 308 324 302
164 199 285 237 158 114 134 238 186 167 256 137 104 99 180 174 140 161 161 170 159 160 159 164 172 137 148 155 185 185 165 159 180 200 186 195 188 195 242 276 266 62 340 352
87 94 265 132 98 170 206 289 237 173 183 111 110 104 104 105 155 151 138 116 116 115 142 167 154 151 153 168 169 157 154 179 188 202 205 193 219 216 242 199 272 293 311 317
186 220 251 283 285 289 211 217 276 239 204 137 122 126 133 109 117 118 113 142 123 139 156 127 126 136 137 175 147 148 165 183 192 183 212 212 198 239 242 236 228 271 260 284
6 270 238 249 225 252 273 287 316 336 91 40 83 70 88 105 116 121 108 124 71 104 140 103 116 138 133 137 145 154 159 187 179 208 219 217 225 226 234 231 236 248 247 254
266 290 294 244 230 255 315 354 328 355 124 104 97 76 89 86 86 99 104 99 114 122 122 126 127 119 132 145 138 144 166 188 205 220 237 236 229 225 226 231 204 214 228 214
225 235 222 270 313 162 126 198 23 108 70 73 86 83 59 84 74 89 98 122 98 100 108 123 137 151 159 156 162 166 185 191 207 219 230 237 243 260 234 244 227 229 233 206
270 310 233 299 359 90 120 130 140 138 122 121 123 106 118 82 73 79 88 99 132 149 152 158 172 173 162 153 149 162 196 205 209 215 222 229 229 235 275 308 227 235 238 236
219 194 358 42 158 62 82 38 190 132 141 126 153 163 107 81 77 154 202 173 147 148 165 162 154 195 181 175 185 206 206 212 207 217 217 217 228 239 246 256 282 290 236 233
45 221 220 238 152 167 132 117 81 103 136 95 48 81 101 119 166 199 224 152 123 135 142 150 193 230 184 180 202 209 216 230 218 229 228 227 225 243 251 250 248 255 285 264
310 7 28 333 310 300 182 184 111 92 86 86 77 70 76 97 122 123 91 119 131 186 186 174 227 296 256 218 225 241 238 237 224 222 225 233 233 234 242 239 250 253 257 254
253 5 5 29 16 353 351 38 103 91 85 77 77 89 76 73 69 61 50 59 61 47 29 10 267 267 235 216 217 240 242 240 223 227 231 228 221 223 240 242 243 251 256 252
67 57 51 127 104 66 53 60 60 76 82 87 81 75 76 83 102 93 73 78 85 68 36 6 347 326 304 271 242 223 241 247 218 231 231 219 233 239 240 245 251 252 263 265
54 54 43 41 69 97 90 86 70 56 56 73 71 71 75 78 77 70 66 58 48 43 17 3 5 16 9 3 0 318 281 279 278 268 255 257 252 246 238 234 253 258 260 261
60 63 53 55 41 59 81 82 81 70 60 83 78 67 66 52 53 64 65 67 43 25 5 14 16 11 2 358 9 2 356 342 311 306 295 275 269 273 264 251 265 270 270 271
59 63 75 70 63 56 56 60 75 64 55 62 77 78 80 70 57 49 54 54 10 24 26 23 20 10 357 6 12 18 15 13 16 12 12 354 340 325 309 311 310 302 290 286
77 72 76 80 73 63 52 61 67 70 70 67 64 65 66 53 50 62 56 47 357 22 22 19 8 6 11 22 24 25 23 21 14 9 9 7 3 3 358 0 358 351 334 326
74 92 81 75 78 79 68 60 64 68 67 61 65 65 67 62 33 37 28 10 14 23 27 19 18 21 16 22 26 19 20 15 8 3 2 2 360 357 346 6 354 343 342 346
80 72 78 75 85 80 76 62 69 68 75 70 65 55 59 86 60 43 42 25 32 34 32 22 16 19 20 9 31 23 17 12 6 0 355 356 354 351 350 350 347 340 337 330
87 85 81 82 81 83 91 90 81 62 63 61 55 50 50 39 77 28 33 30 27 28 20 9 12 14 14 12 12 15 9 7 6 356 352 352 350 346 344 340 335 331 325 324
80 79 68 66 91 102 99 88 90 75 79 72 49 36 39 35 42 38 24 22 23 20 20 5 3 4 3 4 3 358 356 351 354 355 352 349 343 335 330 328 326 326 328 319
79 79 87 75 54 84 93 97 100 94 84 88 94 35 37 33 28 30 16 10 2 353 346 341 340 339 337 340 340 342 329 318 307 310 306 302 302 303 305 309 309 306 305 305